Regional Weather Roundup
Issued by NWS

Home | Current Version | Previous Version | Text Only | Print | Product List | Glossary Off
Versions: 1 2 3 4 5 6 7 8 9 10 11 12 13 14 15 16 17 18 19 20 21 22 23 24 25 26 27 28 29 30 31 32 33 34 35 36 37 38 39 40 41 42 43 44 45 46 47 48 49 50

000
ASUS45 KBOU 250207
RWRCO

WEATHER ROUNDUP FOR COLORADO
NATIONAL WEATHER SERVICE DENVER/BOULDER CO
800 PM MDT FRI APR 24 2015

NOTE: "FAIR" INDICATES FEW OR NO CLOUDS BELOW 12000 FEET WITH NO
SIGNIFICANT WEATHER AND/OR OBSTRUCTIONS TO VISIBILITY.

COZ001>005-013-030-031-250300-
...NORTHWEST COLORADO...

CITY           SKY/WX    TMP DP  RH WIND       PRES   REMARKS
CRAIG          MOCLDY    50  31  48 S7        29.75R
HAYDEN         CLOUDY    50  28  43 NW6       29.78R
MEEKER         CLOUDY    52  30  43 SW8       29.76R
MOUNT WERNER   NOT AVBL
STEAMBOAT SPGS CLOUDY    45  33  65 NW16G24   29.79R
WALDEN         CLOUDY    41  27  56 S5        29.80R
$$

COZ006>008-011-250300-
...WEST CENTRAL VALLEYS...

CITY           SKY/WX    TMP DP  RH WIND       PRES   REMARKS
GRAND JUNCTION MOCLDY    57  31  37 SE17      29.72R
MONTROSE       PTCLDY    50  35  56 E9        29.82R
EAGLE          PTCLDY    50  28  43 W8        29.82S
RIFLE          PTCLDY    52  32  46 E9        29.77S
DELTA          PTCLDY    55  34  45 MISG      29.79S
NUCLA          CLOUDY    52  30  43 E14       29.84S
$$

COZ017>023-064>068-250300-
...SOUTHWEST COLORADO...

CITY           SKY/WX    TMP DP  RH WIND       PRES   REMARKS
DURANGO        PTCLDY    43  33  68 CALM      29.90R
CORTEZ         PTCLDY    52  26  36 S5        29.84R
PAGOSA SPRINGS PTCLDY    45  26  47 CALM      29.93R
TELLURIDE      MOCLDY    34  31  90 SE8       29.97S WCI  27
WOLF CREEK PAS NOT AVBL
$$

COZ009-010-012-014-032>034-037-058>063-250300-
...CENTRAL COLORADO...

CITY           SKY/WX    TMP DP  RH WIND       PRES   REMARKS
ASPEN          PTCLDY    37  30  75 CALM      29.85R
BUENA VISTA    PTCLDY    44  22  41 W17       29.82R
COPPER MTN     MOCLDY    28  19  69 W21G29    29.94S WCI  15
BERTHOUD PASS  FAIR      21  14  73 NW26G32   29.92R HAZE    WCI   4
COTTONWOOD PAS PTCLDY    37  19  48 W18G30    29.87R
GUNNISON       PTCLDY    43  25  49 N5        29.89S
KREMMLING      MOCLDY    45  23  42 S10       29.81S
LEADVILLE      PTCLDY    33  18  53 NW9       29.89R WCI  25
MONARCH PASS   PTCLDY    25  19  80 MISG      30.03F
SALIDA         PTCLDY    47  22  37 W14G22    29.88S
SUNLIGHT       PTCLDY    32  28  86 CALM      29.95S
WILKERSON PASS CLOUDY    30  23  74 W5        29.93R WCI  25
$$

COZ069>075-250300-
...SAN LUIS VALLEY/SANGRE DE CRISTO MOUNTAINS...

CITY           SKY/WX    TMP DP  RH WIND       PRES   REMARKS
ALAMOSA        PTCLDY    45  22  40 W7        29.84R
LA VETA PASS   MOCLDY    34  21  60 SW10G21   29.86R WCI  26
SAGUACHE       PTCLDY    41  27  56 NW8       29.85R
$$

COZ035-036-038>040-250300-
...NORTHERN COLORADO FRONT RANGE...

CITY           SKY/WX    TMP DP  RH WIND       PRES   REMARKS
DENVER INTL AP CLOUDY    53  33  46 W9        29.66S
DMNS CITY PARK   N/A     53  31  42 SW1       29.67R
AURORA         MOCLDY    53  33  47 SW5       29.68S
FRONT RANGE AP MOCLDY    54  36  50 MISG      29.68S
ERIE MUNI ARPT CLOUDY    53  32  45 W3        29.65S
BOULDER MUN AP CLOUDY    55  28  35 S6        29.65F
CENTENNIAL     CLOUDY    52  32  46 W8        29.69S
BROOMFIELD     NOT AVBL
FORT COLLINS   CLOUDY    54  34  47 W8        29.66F
LONGMONT       CLOUDY    56  33  41 CALM      29.66S
$$

COZ041-046-047-076>085-087-088-250300-
...PIKES PEAK/PALMER DIVIDE AND SOUTHERN FOOTHILLS...

CITY           SKY/WX    TMP DP  RH WIND       PRES   REMARKS
COLO. SPRINGS  MOCLDY    49  31  49 NW6       29.72F
A. F. ACADEMY  CLOUDY    47  30  53 NE7       29.72F
ELLICOTT       MOCLDY   N/A N/A N/A NE6       29.71R
FALCON         MOCLDY    45  32  60 CALM      29.75S
FORT CARSON    CLOUDY    52  32  47 SE7       29.69S
LIMON          CLOUDY    48  38  68 SW9       29.68F
MONUMENT HILL  CLOUDY    41  32  70 CALM      29.73S
TRINIDAD       MOCLDY    52  24  33 W12       29.70R
$$

COZ042>045-048>051-090-091-250300-
...NORTHEAST COLORADO...

CITY           SKY/WX    TMP DP  RH WIND       PRES   REMARKS
GREELEY ARPT   MOCLDY    55  32  41 NW8       29.64S
AKRON          MOCLDY    51  38  60 NW5       29.63R
BURLINGTON     CLOUDY    52  40  63 NW12      29.58S
WRAY           CLOUDY    55  46  72 SW6       29.57R
STERLING       MOCLDY    55  36  47 N8        29.58R
HOLYOKE        CLOUDY    59  46  63 NW8       29.57S
FORT MORGAN    MOCLDY    54  33  46 N8        29.64R
$$

COZ086-089-092>099-250300-
...SOUTHEAST COLORADO...

CITY           SKY/WX    TMP DP  RH WIND       PRES   REMARKS
PUEBLO         CLOUDY    55  39  54 N12       29.66R
LA JUNTA       CLOUDY    60  35  39 NW9       29.61R
LAMAR          CLOUDY    60  38  43 VRB3      29.56R
SPRINGFIELD      N/A     59  36  42 NW24G32   29.60R
$$



USA.gov is the U.S. government's official web portal to all federal, state and local government web resources and services.